Regional Weather Roundup
Issued by NWS

Home | Current Version | Previous Version | Text Only | Print | Product List | Glossary On
Versions: 1 2 3 4 5 6 7 8 9 10 11 12 13 14 15 16 17 18 19 20 21 22 23 24 25 26 27 28 29 30 31 32 33 34 35 36 37 38 39 40 41 42 43 44 45 46 47 48 49 50
000
ASUS43 KTOP 191008
RWRKS

WEATHER ROUNDUP FOR KANSAS
NATIONAL WEATHER SERVICE GOODLAND KS
400 AM CST SUN NOV 19 2017

NOTE:  "FAIR" INDICATES FEW OR NO CLOUDS BELOW 12,000 FEET WITH NO
SIGNIFICANT WEATHER AND/OR OBSTRUCTIONS TO VISIBILITY.

KSZ001>006-013>018-027>032-041>047-191100-
NORTHWEST KANSAS

CITY           SKY/WX    TMP DP  RH WIND       PRES   REMARKS
GOODLAND       CLOUDY    24  13  62 SW9       30.23F
HAYS           CLEAR     24  19  81 W5        30.26F
HILL CITY      CLEAR     26  20  77 NW6       30.25F
RUSSELL        CLEAR     26  22  84 W7        30.25S
$$

KSZ061>065-074>080-084>089-191100-
SOUTHWEST KANSAS

CITY           SKY/WX    TMP DP  RH WIND       PRES   REMARKS
DODGE CITY     CLOUDY    28  15  58 W7        30.29S
ELKHART        CLOUDY    29  19  66 SW12      30.26F WCI  20
GARDEN CITY    CLOUDY    19  13  77 W7        30.28S
GREAT BEND     CLEAR     25  20  81 W3        30.28S
LIBERAL        CLOUDY    24  15  68 W3        30.30S
PRATT          CLEAR     27  19  73 W9        30.29S
$$

KSZ066>073-081>083-090>101-191100-
SOUTHEAST KANSAS

CITY           SKY/WX    TMP DP  RH WIND       PRES   REMARKS
CHANUTE        CLEAR     33  27  78 W5        30.27R
COFFEYVILLE    CLEAR     34  28  79 NW3       30.27S
HUTCHINSON     CLEAR     27  22  81 W6        30.27S
MEDICINE LODGE   N/A     26  21  81 NW5       30.30S
NEWTON         CLEAR     31  24  75 W5        30.27F
PARSONS        CLEAR     28  27  96 CALM      30.27S
WICHITA INTL   CLEAR     31  25  78 W3        30.28S
WICHITA JABRA  CLEAR     31  25  78 W9        30.27F
WICHITA MCCONL CLEAR     34  24  65 W3        30.27F
WINFIELD       PTCLDY    28  24  85 CALM      30.30S
$$

KSZ007>012-019>026-033>040-048>060-102>105-191100-
NORTHEAST KANSAS

CITY           SKY/WX    TMP DP  RH WIND       PRES   REMARKS
CONCORDIA      CLEAR     32  23  69 SW6       30.24F
EMPORIA        CLEAR     29  23  78 CALM      30.26R
LAWRENCE       PTCLDY    27  26  96 NW3       30.26R
MANHATTAN      CLEAR     28  24  85 SW3       30.27R
MARYSVILLE     CLEAR     28  23  80 CALM      30.25S
OLATHE IND     CLEAR     30  25  81 NW6       30.25R
OLATHE EXE     CLEAR     31  25  78 NW6       30.24R
SALINA         CLEAR     29  23  78 SE3       30.27S
TOPEKA BILLARD PTCLDY    27  25  92 CALM      30.26S
TOPEKA FORBES  PTCLDY    26  23  88 CALM      30.25S
$$




USA.gov is the U.S. government's official web portal to all federal, state and local government web resources and services.